Retour au catalogue

FENGYUN 1C DEB

LostPO
NORAD 37076·DEBRIS·🇨🇳 China

Lancé May 10, 1999 depuis Taiyuan Satellite Launch Center

Loading…

Prochains Passages (prochaines 24 heures)

TLE

PériméSource: Space-Track

Époque: Jan 1, 2024, 21:34 UTC

1 37076U 99025EFL 24001.89911464  .00005402  00000-0  26361-2 0  9998
2 37076  98.2989 246.0654 0171295 295.1315  63.2172 14.11055522778715

Suivez FENGYUN 1C DEB en temps réel avec AllMySat

Download on the App Store